Weather History for Toluca Jose Maria, Mexico

Change the Weather History Date:

Saturday, November 3, 2012

  Actual Average Record
Temperature  
Mean Temperature 53 °F -  
Max Temperature 64 °F 68 °F 73 °F (1998)
Min Temperature 42 °F 38 °F 26 °F (1999)
Degree Days  
Heating Degree Days 12    
Growing Degree Days 3 (Base 50)    
Moisture  
Dew Point 43 °F    
Average Humidity 73    
Maximum Humidity 87    
Minimum Humidity 48    
Precipitation  
Precipitation 0.35 in - - ()
Sea Level Pressure  
Sea Level Pressure 30.22 in    
Wind  
Wind Speed 4 mph ()    
Max Wind Speed 20 mph    
Max Gust Speed -    
Visibility 4.5 miles    
Events Rain    
Averages and records for this station are not official NWS values.
T = Trace of Precipitation, MM = Missing Value Source: Averaged Metar Reports

Daily Weather History Graph

Daily Weather History Graph

Search for Another Location

Airport:

Trip Planner

Search our weather history database for the weather conditions in past years. The results will help you decide how hot, cold, wet, or windy it might be!

Date:

Astronomy

Nov. 03, 2012 Rise Set
Actual Time 6:40 AM CST 6:03 PM CST
Civil Twilight 6:17 AM CST 6:25 PM CST
Nautical Twilight 5:51 AM CST 6:52 PM CST
Astronomical Twilight 5:25 AM CST 7:18 PM CST
Moon 9:57 PM CST (11/3) 10:32 AM CST (11/3)
Length of Visible Light 12h 08m
Length of Day
11h 23m
Waning Gibbous, 80% of the Moon is Illuminated
Nov 3
Waning Gibbous
Nov 6
Last Quarter
Nov 13
New
Nov 20
First Quarter
Nov 28
Full

Hourly Weather History & Observations

Time (CST) Temp. Dew Point Humidity Pressure Visibility Wind Dir Wind Speed Gust Speed Precip Events Conditions
12:45 AM 44.6 °F 39.2 °F 81% 30.36 in 5.0 mi Calm Calm - N/A   Mostly Cloudy
1:45 AM 44.6 °F 39.2 °F 81% 30.33 in 5.0 mi Calm Calm - N/A   Mostly Cloudy
2:45 AM 44.6 °F 39.2 °F 81% 30.06 in 4.0 mi Calm Calm - N/A   Mostly Cloudy
3:45 AM 42.8 °F 39.2 °F 87% 30.33 in 4.0 mi Calm Calm - N/A   Mostly Cloudy
4:45 AM - - N/A% 30.34 in 3.0 mi Calm Calm - N/A   Mostly Cloudy
5:45 AM 42.8 °F 37.4 °F 81% 29.96 in 3.0 mi Calm Calm - N/A   Mostly Cloudy
6:45 AM 42.8 °F 39.2 °F 87% 30.37 in 4.0 mi Calm Calm - N/A   Mostly Cloudy
7:45 AM 44.6 °F 41.0 °F 87% 30.38 in 5.0 mi Calm Calm - N/A   Mostly Cloudy
8:45 AM 50.0 °F 42.8 °F 76% 29.97 in 5.0 mi SE 4.6 mph - N/A   Mostly Cloudy
9:45 AM 55.4 °F 41.0 °F 58% 30.41 in 5.0 mi SE 5.8 mph - N/A   Mostly Cloudy
10:45 AM 59.0 °F 42.8 °F 55% 30.39 in 6.0 mi SSE 9.2 mph - N/A   Mostly Cloudy
11:45 AM 60.8 °F 44.6 °F 55% 29.89 in 7.0 mi SSE 9.2 mph - N/A   Mostly Cloudy
12:45 PM 64.4 °F 44.6 °F 49% 30.34 in 7.0 mi South 10.4 mph - N/A   Mostly Cloudy
1:45 PM 62.6 °F 42.8 °F 48% 30.31 in 6.0 mi South 16.1 mph - N/A   Overcast
2:45 PM 60.8 °F 42.8 °F 52% 29.85 in 6.0 mi SSE 19.6 mph - N/A   Overcast
3:45 PM 57.2 °F 44.6 °F 63% 30.30 in 6.0 mi South 12.7 mph - N/A   Overcast
4:45 PM 55.4 °F 46.4 °F 72% 30.31 in 4.0 mi SSE 11.5 mph - N/A Rain Light Rain
5:45 PM 53.6 °F 44.6 °F 72% 29.94 in 5.0 mi SSE 8.1 mph - N/A   Overcast
6:45 PM 51.8 °F 46.4 °F 82% 30.34 in 3.0 mi SSE 8.1 mph - N/A Rain Light Rain
7:45 PM 50.0 °F 46.4 °F 87% 30.36 in 2.0 mi SSE 5.8 mph - N/A Rain Light Rain
8:45 PM 51.8 °F 46.4 °F 82% 29.94 in 3.0 mi SSE 6.9 mph - N/A Rain Light Rain
9:43 PM 50.0 °F 44.6 °F 82% 30.38 in 3.0 mi ESE 5.8 mph - N/A Rain Light Rain
10:45 PM 50.0 °F 44.6 °F 82% 30.39 in 3.0 mi SE 5.8 mph - N/A Rain Light Rain
11:45 PM 50.0 °F 44.6 °F 82% 29.99 in 4.0 mi SE 6.9 mph - N/A   Overcast